Location: Arpaise
(41.0333°N, 14.7333°E)
Time: 01:34:46
(UTC+00:00)

Cosmos 1680 Rocket - Pass Details

Date: 05 July 2020
Orbit: 760 x 781 km, 74.1° (Epoch: 11 August)

Event Time Altitude Azimuth Distance (km) Brightness Sun altitude
Exits shadow 21:35:39 55° 183° (S) 934 3.6 -22.9°
Maximum altitude 21:36:50 80° 108° (ESE) 796 3.4 -23.0°
Drops below altitude 10° 21:42:10 10° 22° (NNE) 2,343 6.6 -23.4°
Sets 21:44:34 0° 21° (NNE) 3,275 7.5 -23.6°
